SAOCOM 1A

Last updated on Sun Aug 31 2025 00:02:15 GMT+0000 (Coordinated Universal Time)

1 43641U 18076A 25242.30058046 .00000707 00000+0 95338-4 0 9996 2 43641 97.8902 68.2155 0001428 89.1168 271.0209 14.82154716373014
UTC large
Height (km)
Speed (km/s)
/
Latitude / Longitude
Inclination (degrees)
Orbital Period (minutes)
Azimuth
Elevation
Range (km)
Doppler Factor

Next 0 passes for location: London (51.5072 / 0.1276)

Sorry there are no passes over London.